Location: Bazinghen
(50.8246°N, 1.6616°E)
Time: 18:27:40
(UTC+00:00)

Cosmos 1408 - Pass Details

Date: 09 April 2020
Orbit: 470 x 494 km, 82.6° (Epoch: 01 June)

Event Time Altitude Azimuth Distance (km) Brightness Sun altitude
Rises 20:40:40 0° 354° (N) 2,565 6.9 -17.9°
Reaches altitude 10° 20:42:50 10° 360° (N) 1,683 5.8 -18.1°
Maximum altitude 20:46:25 49° 76° (ENE) 638 2.8 -18.6°
Enters shadow 20:46:43 48° 94° (E) 651 2.8 -18.6°
